Time,TemperatureF,DewpointF,PressureIn,WindDirection,WindDirectionDegrees,WindSpeedMPH,WindSpeedGustMPH,Humidity,HourlyPrecipIn,Conditions,Clouds,dailyrainin,SoftwareType,DateUTC
2013-05-27 00:00:00,73.4,65.8,28.23,SE,144,3.6,5.4,77,0.00,,---,0.00,VWS V14.01,2013-05-27 05:00:00,
2013-05-27 00:05:00,73.4,66.1,28.23,SSE,147,4.0,5.8,78,0.00,,---,0.00,VWS V14.01,2013-05-27 05:05:00,
2013-05-27 00:10:00,73.4,66.1,28.23,SE,145,4.5,5.8,78,0.00,,---,0.00,VWS V14.01,2013-05-27 05:10:00,
2013-05-27 00:15:00,73.2,66.3,28.23,ESE,114,5.4,8.3,79,0.00,,---,0.00,VWS V14.01,2013-05-27 05:15:00,
2013-05-27 00:21:00,73.4,66.1,28.23,SSE,147,3.1,8.7,78,0.00,,---,0.00,VWS V14.01,2013-05-27 05:21:00,
2013-05-27 00:26:00,73.4,66.1,28.23,SE,132,3.1,8.7,78,0.00,,---,0.00,VWS V14.01,2013-05-27 05:26:00,
2013-05-27 00:31:00,73.4,66.1,28.23,ESE,123,3.1,8.7,78,0.00,,---,0.00,VWS V14.01,2013-05-27 05:31:00,
2013-05-27 00:36:00,73.4,66.1,28.23,SW,228,2.7,8.7,78,0.00,,---,0.00,VWS V14.01,2013-05-27 05:36:00,
2013-05-27 00:41:00,73.2,66.3,28.23,SSE,159,3.6,8.7,79,0.00,,---,0.00,VWS V14.01,2013-05-27 05:41:00,
2013-05-27 00:46:00,73.2,66.3,28.23,ESE,114,3.1,8.7,79,0.00,,---,0.00,VWS V14.01,2013-05-27 05:46:00,
2013-05-27 00:51:00,73.4,66.1,28.23,SE,138,5.8,8.7,78,0.00,,---,0.00,VWS V14.01,2013-05-27 05:51:00,
2013-05-27 00:57:00,73.4,66.1,28.23,SE,136,5.4,8.7,78,0.00,,---,0.00,VWS V14.01,2013-05-27 05:57:00,
2013-05-27 01:02:00,73.4,66.1,28.23,SSE,164,4.9,4.9,78,0.00,,---,0.00,VWS V14.01,2013-05-27 06:02:00,
2013-05-27 01:07:00,73.2,66.3,28.23,SE,143,4.9,7.6,79,0.00,,---,0.00,VWS V14.01,2013-05-27 06:07:00,
2013-05-27 01:12:00,73.2,66.3,28.23,South,170,5.8,7.6,79,0.00,,---,0.00,VWS V14.01,2013-05-27 06:12:00,
2013-05-27 01:17:00,73.0,66.2,28.23,SE,130,4.9,7.6,79,0.00,,---,0.00,VWS V14.01,2013-05-27 06:17:00,
2013-05-27 01:22:00,73.0,66.2,28.20,SSE,158,5.4,7.6,79,0.00,,---,0.00,VWS V14.01,2013-05-27 06:22:00,
2013-05-27 01:27:00,73.0,66.5,28.20,ESE,123,5.4,7.6,80,0.00,,---,0.00,VWS V14.01,2013-05-27 06:27:00,
2013-05-27 01:32:00,73.0,66.5,28.20,SSE,166,3.1,9.6,80,0.00,,---,0.00,VWS V14.01,2013-05-27 06:32:00,
2013-05-27 01:38:00,73.0,66.5,28.20,ESE,113,4.0,9.6,80,0.00,,---,0.00,VWS V14.01,2013-05-27 06:38:00,
2013-05-27 01:43:00,73.0,66.5,28.20,East,100,3.6,9.6,80,0.00,,---,0.00,VWS V14.01,2013-05-27 06:43:00,
2013-05-27 01:48:00,73.0,66.5,28.20,SE,143,7.6,9.6,80,0.00,,---,0.00,VWS V14.01,2013-05-27 06:48:00,
2013-05-27 01:53:00,73.0,66.5,28.20,SE,133,4.9,10.1,80,0.00,,---,0.00,VWS V14.01,2013-05-27 06:53:00,
2013-05-27 01:58:00,73.0,66.5,28.20,SSE,162,5.4,10.1,80,0.00,,---,0.00,VWS V14.01,2013-05-27 06:58:00,
2013-05-27 02:03:00,73.0,66.5,28.20,SSE,166,3.1,8.1,80,0.00,,---,0.00,VWS V14.01,2013-05-27 07:03:00,
2013-05-27 02:08:00,73.0,66.5,28.20,SSE,153,8.3,9.6,80,0.00,,---,0.00,VWS V14.01,2013-05-27 07:08:00,
2013-05-27 02:13:00,72.9,66.7,28.20,WSW,243,5.4,12.3,81,0.00,,---,0.00,VWS V14.01,2013-05-27 07:13:00,
2013-05-27 02:19:00,72.9,66.7,28.20,SE,130,9.6,12.3,81,0.00,,---,0.00,VWS V14.01,2013-05-27 07:19:00,
2013-05-27 02:24:00,72.9,66.7,28.20,SSE,148,4.9,12.3,81,0.00,,---,0.00,VWS V14.01,2013-05-27 07:24:00,
2013-05-27 02:29:00,72.9,66.7,28.20,SE,125,2.7,12.3,81,0.00,,---,0.00,VWS V14.01,2013-05-27 07:29:00,
2013-05-27 02:34:00,72.9,66.7,28.20,ESE,111,5.8,12.3,81,0.00,,---,0.00,VWS V14.01,2013-05-27 07:34:00,
2013-05-27 02:39:00,72.9,66.7,28.20,SSE,149,5.4,12.3,81,0.00,,---,0.00,VWS V14.01,2013-05-27 07:39:00,
2013-05-27 02:44:00,72.9,66.7,28.20,SE,141,11.0,12.3,81,0.00,,---,0.00,VWS V14.01,2013-05-27 07:44:00,
2013-05-27 02:49:00,73.0,66.9,28.20,ESE,119,3.1,12.3,81,0.00,,---,0.00,VWS V14.01,2013-05-27 07:49:00,
2013-05-27 02:54:00,73.0,66.9,28.20,SSE,150,6.3,12.3,81,0.00,,---,0.00,VWS V14.01,2013-05-27 07:54:00,
2013-05-27 02:59:00,73.0,66.9,28.20,SE,133,3.6,12.3,81,0.00,,---,0.00,VWS V14.01,2013-05-27 07:59:00,
2013-05-27 03:05:00,73.0,66.9,28.20,SE,126,5.4,7.2,81,0.00,,---,0.00,VWS V14.01,2013-05-27 08:05:00,
2013-05-27 03:10:00,73.0,66.9,28.20,South,170,4.0,7.2,81,0.00,,---,0.00,VWS V14.01,2013-05-27 08:10:00,
2013-05-27 03:15:00,73.0,66.9,28.20,ESE,104,4.0,8.3,81,0.00,,---,0.00,VWS V14.01,2013-05-27 08:15:00,
2013-05-27 03:20:00,73.0,66.9,28.20,ESE,117,2.7,11.0,81,0.00,,---,0.00,VWS V14.01,2013-05-27 08:20:00,
2013-05-27 03:25:00,73.2,67.1,28.20,SSE,150,6.3,11.0,81,0.00,,---,0.00,VWS V14.01,2013-05-27 08:25:00,
2013-05-27 03:30:00,73.2,67.1,28.20,South,184,4.0,11.0,81,0.00,,---,0.00,VWS V14.01,2013-05-27 08:30:00,
2013-05-27 03:35:00,73.2,66.7,28.20,SSE,156,3.1,11.0,80,0.00,,---,0.00,VWS V14.01,2013-05-27 08:35:00,
2013-05-27 03:41:00,73.2,66.7,28.20,SE,140,3.6,11.0,80,0.00,,---,0.00,VWS V14.01,2013-05-27 08:41:00,
2013-05-27 03:46:00,73.2,66.7,28.20,ESE,116,4.0,11.0,80,0.00,,---,0.00,VWS V14.01,2013-05-27 08:46:00,
2013-05-27 03:51:00,73.2,66.7,28.20,SE,133,4.0,11.0,80,0.00,,---,0.00,VWS V14.01,2013-05-27 08:51:00,
2013-05-27 03:56:00,73.2,66.7,28.20,South,190,3.6,11.0,80,0.00,,---,0.00,VWS V14.01,2013-05-27 08:56:00,
2013-05-27 04:01:00,73.2,66.7,28.20,SE,145,4.0,5.8,80,0.00,,---,0.00,VWS V14.01,2013-05-27 09:01:00,
2013-05-27 04:06:00,73.2,66.7,28.17,East,97,3.1,5.8,80,0.00,,---,0.00,VWS V14.01,2013-05-27 09:06:00,
2013-05-27 04:11:00,73.2,66.7,28.17,ESE,110,4.0,7.6,80,0.00,,---,0.00,VWS V14.01,2013-05-27 09:11:00,
2013-05-27 04:17:00,73.2,66.7,28.17,NNW,333,2.7,7.6,80,0.00,,---,0.00,VWS V14.01,2013-05-27 09:17:00,
2013-05-27 04:22:00,73.2,66.7,28.17,SE,142,2.7,7.6,80,0.00,,---,0.00,VWS V14.01,2013-05-27 09:22:00,
2013-05-27 04:27:00,73.0,66.5,28.17,SSE,150,4.0,7.6,80,0.00,,---,0.00,VWS V14.01,2013-05-27 09:27:00,
2013-05-27 04:32:00,73.0,66.5,28.17,ESE,121,5.4,8.3,80,0.00,,---,0.00,VWS V14.01,2013-05-27 09:32:00,
2013-05-27 04:37:00,73.0,66.5,28.17,SSE,147,3.6,8.3,80,0.00,,---,0.00,VWS V14.01,2013-05-27 09:37:00,
2013-05-27 04:42:00,73.0,66.5,28.17,SE,135,6.3,9.6,80,0.00,,---,0.00,VWS V14.01,2013-05-27 09:42:00,
2013-05-27 04:48:00,73.0,66.5,28.17,SE,140,4.9,11.0,80,0.00,,---,0.00,VWS V14.01,2013-05-27 09:48:00,
2013-05-27 04:53:00,73.0,66.5,28.17,ESE,122,3.6,11.0,80,0.00,,---,0.00,VWS V14.01,2013-05-27 09:53:00,
2013-05-27 04:58:00,73.0,66.5,28.17,SSE,154,4.0,11.0,80,0.00,,---,0.00,VWS V14.01,2013-05-27 09:58:00,
2013-05-27 05:03:00,72.9,66.3,28.17,ESE,122,5.4,10.1,80,0.00,,---,0.00,VWS V14.01,2013-05-27 10:03:00,
2013-05-27 05:08:00,72.9,66.3,28.17,South,188,3.6,10.1,80,0.00,,---,0.00,VWS V14.01,2013-05-27 10:08:00,
2013-05-27 05:13:00,72.7,66.2,28.17,ESE,102,3.6,10.1,80,0.00,,---,0.00,VWS V14.01,2013-05-27 10:13:00,
2013-05-27 05:18:00,72.5,66.0,28.17,SSE,163,4.0,10.1,80,0.00,,---,0.00,VWS V14.01,2013-05-27 10:18:00,
2013-05-27 05:23:00,72.3,66.2,28.17,SSE,161,2.2,10.1,81,0.00,,---,0.00,VWS V14.01,2013-05-27 10:23:00,
2013-05-27 05:28:00,72.1,66.0,28.17,ESE,120,4.9,10.1,81,0.00,,---,0.00,VWS V14.01,2013-05-27 10:28:00,
2013-05-27 05:34:00,72.1,66.0,28.17,SSE,154,0.0,10.1,81,0.00,,---,0.00,VWS V14.01,2013-05-27 10:34:00,
2013-05-27 05:39:00,72.1,66.3,28.14,South,169,3.1,10.1,82,0.00,,---,0.00,VWS V14.01,2013-05-27 10:39:00,
2013-05-27 05:44:00,72.0,66.2,28.14,North,0,3.6,10.1,82,0.00,,---,0.00,VWS V14.01,2013-05-27 10:44:00,
2013-05-27 05:49:00,72.0,66.2,28.14,South,170,3.1,10.1,82,0.00,,---,0.00,VWS V14.01,2013-05-27 10:49:00,
2013-05-27 05:54:00,72.0,66.5,28.17,SSE,165,2.7,10.1,83,0.00,,---,0.00,VWS V14.01,2013-05-27 10:54:00,
2013-05-27 05:59:00,72.0,66.5,28.17,SSE,158,3.1,10.1,83,0.00,,---,0.00,VWS V14.01,2013-05-27 10:59:00,
2013-05-27 06:04:00,72.0,66.5,28.17,SE,138,3.1,5.4,83,0.00,,---,0.00,VWS V14.01,2013-05-27 11:04:00,
2013-05-27 06:10:00,72.0,66.5,28.17,South,173,5.4,5.8,83,0.00,,---,0.00,VWS V14.01,2013-05-27 11:10:00,
2013-05-27 06:15:00,72.1,66.7,28.17,ESE,119,2.7,8.1,83,0.00,,---,0.00,VWS V14.01,2013-05-27 11:15:00,
2013-05-27 06:20:00,72.1,66.7,28.17,South,191,5.4,8.1,83,0.00,,---,0.00,VWS V14.01,2013-05-27 11:20:00,
2013-05-27 06:25:00,72.1,66.7,28.14,South,181,5.4,8.1,83,0.00,,---,0.00,VWS V14.01,2013-05-27 11:25:00,
2013-05-27 06:30:00,72.1,66.7,28.14,ESE,104,2.7,8.7,83,0.00,,---,0.00,VWS V14.01,2013-05-27 11:30:00,
2013-05-27 06:35:00,72.3,66.5,28.14,ESE,114,2.2,8.7,82,0.00,,---,0.00,VWS V14.01,2013-05-27 11:35:00,
2013-05-27 06:40:00,72.3,66.5,28.14,SSE,153,2.7,8.7,82,0.00,,---,0.00,VWS V14.01,2013-05-27 11:40:00,
2013-05-27 06:45:00,72.3,66.5,28.14,SSE,149,3.6,8.7,82,0.00,,---,0.00,VWS V14.01,2013-05-27 11:45:00,
2013-05-27 06:50:00,72.3,66.5,28.14,SSW,193,2.2,8.7,82,0.00,,---,0.00,VWS V14.01,2013-05-27 11:50:00,
2013-05-27 06:55:00,72.5,66.7,28.14,South,173,3.1,8.7,82,0.00,,---,0.00,VWS V14.01,2013-05-27 11:55:00,
2013-05-27 07:01:00,72.5,66.3,28.14,SSE,154,3.6,3.6,81,0.00,,---,0.00,VWS V14.01,2013-05-27 12:01:00,
2013-05-27 07:06:00,72.5,66.3,28.14,SSE,150,5.4,7.6,81,0.00,,---,0.00,VWS V14.01,2013-05-27 12:06:00,
2013-05-27 07:11:00,72.5,66.3,28.14,ESE,102,2.7,8.3,81,0.00,,---,0.00,VWS V14.01,2013-05-27 12:11:00,
2013-05-27 07:16:00,72.7,66.5,28.14,SE,125,3.6,8.3,81,0.00,,---,0.00,VWS V14.01,2013-05-27 12:16:00,
2013-05-27 07:21:00,72.7,66.5,28.14,ESE,121,5.8,8.3,81,0.00,,---,0.00,VWS V14.01,2013-05-27 12:21:00,
2013-05-27 07:26:00,72.7,66.5,28.14,SSE,152,5.8,8.3,81,0.00,,---,0.00,VWS V14.01,2013-05-27 12:26:00,
2013-05-27 07:31:00,72.7,66.5,28.14,SE,138,2.7,8.3,81,0.00,,---,0.00,VWS V14.01,2013-05-27 12:31:00,
2013-05-27 07:36:00,72.9,66.7,28.14,SE,133,5.4,8.3,81,0.00,,---,0.00,VWS V14.01,2013-05-27 12:36:00,
2013-05-27 07:41:00,72.9,66.7,28.14,ESE,115,5.8,8.3,81,0.00,,---,0.00,VWS V14.01,2013-05-27 12:41:00,
2013-05-27 07:46:00,73.0,66.5,28.14,ESE,110,2.7,8.3,80,0.00,,---,0.00,VWS V14.01,2013-05-27 12:46:00,
2013-05-27 07:52:00,73.2,66.7,28.14,SE,140,5.8,8.3,80,0.00,,---,0.00,VWS V14.01,2013-05-27 12:52:00,
2013-05-27 07:57:00,73.4,66.5,28.14,NW,312,3.1,8.7,79,0.00,,---,0.00,VWS V14.01,2013-05-27 12:57:00,
2013-05-27 08:02:00,73.8,66.5,28.14,SE,126,3.6,5.8,78,0.00,,---,0.00,VWS V14.01,2013-05-27 13:02:00,
2013-05-27 08:07:00,73.9,66.7,28.17,NNE,20,5.4,5.8,78,0.00,,---,0.00,VWS V14.01,2013-05-27 13:07:00,
2013-05-27 08:12:00,73.9,66.7,28.17,NNE,20,3.6,6.3,78,0.00,,---,0.00,VWS V14.01,2013-05-27 13:12:00,
2013-05-27 08:17:00,73.9,66.3,28.17,ENE,71,0.0,6.3,77,0.00,,---,0.00,VWS V14.01,2013-05-27 13:17:00,
2013-05-27 08:22:00,73.9,66.3,28.17,ENE,71,0.0,6.3,77,0.00,,---,0.00,VWS V14.01,2013-05-27 13:22:00,
2013-05-27 08:27:00,73.9,66.3,28.17,SSE,167,0.0,6.3,77,0.00,,---,0.00,VWS V14.01,2013-05-27 13:27:00,
2013-05-27 08:32:00,74.1,66.5,28.17,South,186,3.1,6.3,77,0.00,,---,0.00,VWS V14.01,2013-05-27 13:32:00,
2013-05-27 08:37:00,74.5,66.8,28.17,SSE,162,2.7,7.6,77,0.00,,---,0.00,VWS V14.01,2013-05-27 13:37:00,
2013-05-27 08:43:00,75.0,67.3,28.17,NW,325,3.6,7.6,77,0.00,,---,0.00,VWS V14.01,2013-05-27 13:43:00,
2013-05-27 08:48:00,75.4,67.3,28.17,SSE,165,0.0,7.6,76,0.00,,---,0.00,VWS V14.01,2013-05-27 13:48:00,
2013-05-27 08:53:00,75.4,66.5,28.17,North,357,0.0,7.6,74,0.00,,---,0.00,VWS V14.01,2013-05-27 13:53:00,
2013-05-27 08:58:00,75.4,66.5,28.17,North,357,3.6,7.6,74,0.00,,---,0.00,VWS V14.01,2013-05-27 13:58:00,
2013-05-27 09:03:00,75.2,66.0,28.17,North,357,0.0,2.7,73,0.00,,---,0.00,VWS V14.01,2013-05-27 14:03:00,
2013-05-27 09:08:00,75.0,66.2,28.20,North,357,0.0,2.7,74,0.00,,---,0.00,VWS V14.01,2013-05-27 14:08:00,
2013-05-27 09:13:00,75.0,66.2,28.20,North,8,0.0,6.3,74,0.00,,---,0.00,VWS V14.01,2013-05-27 14:13:00,
2013-05-27 09:18:00,74.8,66.0,28.20,NNE,27,3.6,6.3,74,0.00,,---,0.00,VWS V14.01,2013-05-27 14:18:00,
2013-05-27 09:23:00,74.7,66.2,28.20,NNE,27,3.6,6.3,75,0.00,,---,0.00,VWS V14.01,2013-05-27 14:23:00,
2013-05-27 09:28:00,74.5,66.0,28.20,NNE,27,2.7,6.3,75,0.00,,---,0.00,VWS V14.01,2013-05-27 14:28:00,
2013-05-27 09:34:00,74.3,66.2,28.20,NNE,26,6.3,6.3,76,0.00,,---,0.00,VWS V14.01,2013-05-27 14:34:00,
2013-05-27 09:39:00,74.1,66.1,28.20,NNE,21,5.8,10.1,76,0.00,,---,0.00,VWS V14.01,2013-05-27 14:39:00,
2013-05-27 09:44:00,73.9,66.3,28.20,NE,47,3.1,10.1,77,0.00,,---,0.00,VWS V14.01,2013-05-27 14:44:00,
2013-05-27 09:49:00,73.4,64.2,28.20,North,353,8.3,15.4,73,0.00,,---,0.00,VWS V14.01,2013-05-27 14:49:00,
2013-05-27 09:54:00,72.0,61.2,28.23,NNE,16,8.1,15.4,69,0.00,,---,0.00,VWS V14.01,2013-05-27 14:54:00,
2013-05-27 09:59:00,70.3,59.3,28.23,North,9,5.8,15.4,68,0.00,,---,0.00,VWS V14.01,2013-05-27 14:59:00,
2013-05-27 10:04:00,69.1,59.7,28.23,West,259,6.3,15.0,72,0.00,,---,0.00,VWS V14.01,2013-05-27 15:04:00,
2013-05-27 10:09:00,68.2,60.0,28.23,NE,42,8.7,15.0,75,0.00,,---,0.00,VWS V14.01,2013-05-27 15:09:00,
2013-05-27 10:14:00,67.8,60.3,28.23,North,5,13.6,15.0,77,0.00,,---,0.00,VWS V14.01,2013-05-27 15:14:00,
2013-05-27 10:20:00,67.5,60.4,28.23,NE,35,9.6,15.4,78,0.00,,---,0.00,VWS V14.01,2013-05-27 15:20:00,
2013-05-27 10:25:00,67.3,60.9,28.23,NE,49,5.8,15.4,80,0.00,,---,0.00,VWS V14.01,2013-05-27 15:25:00,
2013-05-27 10:30:00,67.6,61.3,28.23,NE,39,7.6,15.4,80,0.00,,---,0.00,VWS V14.01,2013-05-27 15:30:00,
2013-05-27 10:35:00,68.2,61.4,28.23,NNE,17,12.8,15.4,79,0.00,,---,0.00,VWS V14.01,2013-05-27 15:35:00,
2013-05-27 10:40:00,68.7,61.6,28.23,North,353,7.6,15.4,78,0.00,,---,0.00,VWS V14.01,2013-05-27 15:40:00,
2013-05-27 10:45:00,69.1,61.2,28.23,ENE,75,15.4,15.4,76,0.00,,---,0.00,VWS V14.01,2013-05-27 15:45:00,
2013-05-27 10:50:00,69.4,61.2,28.23,NNE,22,4.9,15.4,75,0.00,,---,0.00,VWS V14.01,2013-05-27 15:50:00,
2013-05-27 10:55:00,70.0,61.3,28.23,NE,38,3.1,15.4,74,0.00,,---,0.00,VWS V14.01,2013-05-27 15:55:00,
2013-05-27 11:00:00,70.5,61.1,28.23,NNE,12,15.0,15.0,72,0.00,,---,0.00,VWS V14.01,2013-05-27 16:00:00,
2013-05-27 11:05:00,70.7,60.8,28.23,NE,42,5.8,15.0,71,0.00,,---,0.00,VWS V14.01,2013-05-27 16:05:00,
2013-05-27 11:11:00,71.1,61.2,28.23,North,5,10.5,15.0,71,0.00,,---,0.00,VWS V14.01,2013-05-27 16:11:00,
2013-05-27 11:16:00,72.0,62.0,28.23,NE,37,7.6,19.7,71,0.00,,---,0.00,VWS V14.01,2013-05-27 16:16:00,
2013-05-27 11:21:00,72.5,61.3,28.23,NNE,20,6.3,19.7,68,0.00,,---,0.00,VWS V14.01,2013-05-27 16:21:00,
2013-05-27 11:26:00,72.7,61.5,28.23,NE,55,7.2,19.7,68,0.00,,---,0.00,VWS V14.01,2013-05-27 16:26:00,
2013-05-27 11:31:00,73.4,61.8,28.23,NE,55,5.4,19.7,67,0.00,,---,0.00,VWS V14.01,2013-05-27 16:31:00,
2013-05-27 11:36:00,73.6,61.1,28.23,North,357,3.1,19.7,65,0.00,,---,0.00,VWS V14.01,2013-05-27 16:36:00,
2013-05-27 11:41:00,73.2,60.8,28.23,NNW,333,5.4,19.7,65,0.00,,---,0.00,VWS V14.01,2013-05-27 16:41:00,
2013-05-27 11:46:00,72.5,60.5,28.23,NE,34,5.8,19.7,66,0.00,,---,0.00,VWS V14.01,2013-05-27 16:46:00,
2013-05-27 11:51:00,72.0,60.0,28.23,East,101,4.0,19.7,66,0.00,,---,0.00,VWS V14.01,2013-05-27 16:51:00,
2013-05-27 11:57:00,71.6,60.5,28.23,NE,38,4.0,19.7,68,0.00,,---,0.00,VWS V14.01,2013-05-27 16:57:00,
2013-05-27 12:02:00,71.8,60.7,28.23,North,3,4.0,6.3,68,0.00,,---,0.00,VWS V14.01,2013-05-27 17:02:00,
2013-05-27 12:07:00,72.0,60.8,28.23,East,79,4.9,10.5,68,0.00,,---,0.00,VWS V14.01,2013-05-27 17:07:00,
2013-05-27 12:12:00,72.5,61.3,28.23,NE,54,5.4,10.5,68,0.00,,---,0.00,VWS V14.01,2013-05-27 17:12:00,
2013-05-27 12:17:00,73.4,61.8,28.23,North,357,2.7,10.5,67,0.00,,---,0.00,VWS V14.01,2013-05-27 17:17:00,
2013-05-27 12:22:00,74.1,61.6,28.20,NNE,20,8.1,10.5,65,0.00,,---,0.00,VWS V14.01,2013-05-27 17:22:00,
2013-05-27 12:27:00,73.9,61.0,28.20,NNE,32,3.6,10.5,64,0.00,,---,0.00,VWS V14.01,2013-05-27 17:27:00,
2013-05-27 12:32:00,74.1,61.6,28.20,North,1,5.8,10.5,65,0.00,,---,0.00,VWS V14.01,2013-05-27 17:32:00,
2013-05-27 12:37:00,74.5,61.5,28.20,NNE,17,5.4,10.5,64,0.00,,---,0.00,VWS V14.01,2013-05-27 17:37:00,
2013-05-27 12:42:00,74.7,61.7,28.20,NE,52,3.1,10.5,64,0.00,,---,0.00,VWS V14.01,2013-05-27 17:42:00,
2013-05-27 12:48:00,74.8,61.9,28.20,NE,39,8.1,10.5,64,0.00,,---,0.00,VWS V14.01,2013-05-27 17:48:00,
2013-05-27 12:53:00,75.2,62.2,28.20,NNW,341,5.4,10.5,64,0.00,,---,0.00,VWS V14.01,2013-05-27 17:53:00,
2013-05-27 12:58:00,75.6,62.5,28.20,SE,125,8.1,10.5,64,0.00,,---,0.00,VWS V14.01,2013-05-27 17:58:00,
2013-05-27 13:03:00,76.3,63.2,28.20,North,349,3.6,6.3,64,0.00,,---,0.00,VWS V14.01,2013-05-27 18:03:00,
2013-05-27 13:08:00,77.4,62.4,28.17,NNW,330,5.8,12.8,60,0.00,,---,0.00,VWS V14.01,2013-05-27 18:08:00,
2013-05-27 13:13:00,77.5,62.6,28.17,NNE,23,5.4,12.8,60,0.00,,---,0.00,VWS V14.01,2013-05-27 18:13:00,
2013-05-27 13:18:00,77.5,63.0,28.17,North,0,6.3,12.8,61,0.00,,---,0.00,VWS V14.01,2013-05-27 18:18:00,
2013-05-27 13:23:00,77.9,63.4,28.17,NNE,16,4.0,12.8,61,0.00,,---,0.00,VWS V14.01,2013-05-27 18:23:00,
2013-05-27 13:28:00,77.9,63.4,28.17,ESE,117,4.0,14.1,61,0.00,,---,0.00,VWS V14.01,2013-05-27 18:28:00,
2013-05-27 13:33:00,77.9,63.4,28.17,East,99,4.0,14.1,61,0.00,,---,0.00,VWS V14.01,2013-05-27 18:33:00,
2013-05-27 13:39:00,78.1,64.5,28.17,WNW,291,3.6,14.1,63,0.00,,---,0.00,VWS V14.01,2013-05-27 18:39:00,
2013-05-27 13:44:00,79.0,65.3,28.17,NE,36,3.1,14.1,63,0.00,,---,0.00,VWS V14.01,2013-05-27 18:44:00,
2013-05-27 13:49:00,80.1,65.4,28.17,NNE,23,3.6,14.1,61,0.00,,---,0.00,VWS V14.01,2013-05-27 18:49:00,
2013-05-27 13:54:00,80.2,64.6,28.14,NE,44,3.1,14.1,59,0.00,,---,0.00,VWS V14.01,2013-05-27 18:54:00,
2013-05-27 13:59:00,80.4,65.3,28.14,NE,34,5.8,14.1,60,0.00,,---,0.00,VWS V14.01,2013-05-27 18:59:00,
2013-05-27 14:04:00,80.8,66.1,28.14,NNE,29,4.0,5.4,61,0.00,,---,0.00,VWS V14.01,2013-05-27 19:04:00,
2013-05-27 14:09:00,81.3,66.1,28.11,South,173,7.2,7.6,60,0.00,,---,0.00,VWS V14.01,2013-05-27 19:09:00,
2013-05-27 14:14:00,81.1,65.5,28.11,ESE,107,2.7,8.3,59,0.00,,---,0.00,VWS V14.01,2013-05-27 19:14:00,
2013-05-27 14:19:00,81.1,65.5,28.11,ENE,72,5.8,8.3,59,0.00,,---,0.00,VWS V14.01,2013-05-27 19:19:00,
2013-05-27 14:24:00,81.9,67.1,28.11,SSE,151,3.6,8.3,61,0.00,,---,0.00,VWS V14.01,2013-05-27 19:24:00,
2013-05-27 14:30:00,82.8,67.5,28.11,ESE,115,4.0,8.3,60,0.00,,---,0.00,VWS V14.01,2013-05-27 19:30:00,
2013-05-27 14:35:00,82.9,66.7,28.11,SSE,163,5.4,8.3,58,0.00,,---,0.00,VWS V14.01,2013-05-27 19:35:00,
2013-05-27 14:40:00,84.0,67.2,28.11,SSE,147,8.1,8.3,57,0.00,,---,0.00,VWS V14.01,2013-05-27 19:40:00,
2013-05-27 14:45:00,85.3,65.1,28.11,South,183,6.3,11.4,51,0.00,,---,0.00,VWS V14.01,2013-05-27 19:45:00,
2013-05-27 14:50:00,86.2,63.6,28.11,SSE,162,6.3,11.4,47,0.00,,---,0.00,VWS V14.01,2013-05-27 19:50:00,
2013-05-27 14:55:00,86.5,63.3,28.11,SE,129,3.6,11.4,46,0.00,,---,0.00,VWS V14.01,2013-05-27 19:55:00,
2013-05-27 15:00:00,86.2,63.6,28.11,ESE,119,3.6,8.3,47,0.00,,---,0.00,VWS V14.01,2013-05-27 20:00:00,
2013-05-27 15:05:00,86.2,63.6,28.08,SE,124,7.6,10.1,47,0.00,,---,0.00,VWS V14.01,2013-05-27 20:05:00,
2013-05-27 15:10:00,86.0,62.8,28.08,NE,48,5.8,16.8,46,0.00,,---,0.00,VWS V14.01,2013-05-27 20:10:00,
2013-05-27 15:15:00,86.0,64.0,28.08,SSE,153,2.7,16.8,48,0.00,,---,0.00,VWS V14.01,2013-05-27 20:15:00,
2013-05-27 15:21:00,86.0,64.0,28.08,SE,141,6.3,16.8,48,0.00,,---,0.00,VWS V14.01,2013-05-27 20:21:00,
2013-05-27 15:26:00,86.2,64.8,28.08,East,91,3.1,16.8,49,0.00,,---,0.00,VWS V14.01,2013-05-27 20:26:00,
2013-05-27 15:31:00,86.4,63.8,28.08,SE,131,5.4,16.8,47,0.00,,---,0.00,VWS V14.01,2013-05-27 20:31:00,
2013-05-27 15:36:00,86.4,63.2,28.08,SSE,154,6.3,16.8,46,0.00,,---,0.00,VWS V14.01,2013-05-27 20:36:00,
2013-05-27 15:41:00,86.2,63.6,28.08,South,172,4.9,16.8,47,0.00,,---,0.00,VWS V14.01,2013-05-27 20:41:00,
2013-05-27 15:46:00,86.2,64.2,28.08,SE,127,7.6,16.8,48,0.00,,---,0.00,VWS V14.01,2013-05-27 20:46:00,
2013-05-27 15:51:00,86.4,64.4,28.08,SE,130,2.7,16.8,48,0.00,,---,0.00,VWS V14.01,2013-05-27 20:51:00,
2013-05-27 15:56:00,86.4,65.0,28.08,South,179,3.1,16.8,49,0.00,,---,0.00,VWS V14.01,2013-05-27 20:56:00,
2013-05-27 16:01:00,86.4,64.4,28.08,SSE,162,10.1,10.1,48,0.00,,---,0.00,VWS V14.01,2013-05-27 21:01:00,
2013-05-27 16:06:00,86.4,63.8,28.05,SE,127,5.8,11.0,47,0.00,,---,0.00,VWS V14.01,2013-05-27 21:06:00,
2013-05-27 16:12:00,86.2,64.2,28.05,ESE,113,5.4,12.8,48,0.00,,---,0.00,VWS V14.01,2013-05-27 21:12:00,
2013-05-27 16:17:00,86.0,63.4,28.05,SE,137,12.8,12.8,47,0.00,,---,0.00,VWS V14.01,2013-05-27 21:17:00,
2013-05-27 16:22:00,85.8,63.3,28.05,SE,143,8.7,12.8,47,0.00,,---,0.00,VWS V14.01,2013-05-27 21:22:00,
2013-05-27 16:27:00,85.8,63.9,28.05,SSE,160,3.6,12.8,48,0.00,,---,0.00,VWS V14.01,2013-05-27 21:27:00,
2013-05-27 16:32:00,85.6,63.1,28.05,SSE,150,6.3,12.8,47,0.00,,---,0.00,VWS V14.01,2013-05-27 21:32:00,
2013-05-27 16:37:00,85.3,63.4,28.05,SSE,150,8.7,13.6,48,0.00,,---,0.00,VWS V14.01,2013-05-27 21:37:00,
2013-05-27 16:42:00,84.9,63.7,28.05,SSW,193,4.9,14.5,49,0.00,,---,0.00,VWS V14.01,2013-05-27 21:42:00,
2013-05-27 16:47:00,84.7,63.5,28.05,SSE,163,8.7,17.4,49,0.00,,---,0.00,VWS V14.01,2013-05-27 21:47:00,
2013-05-27 16:52:00,84.6,63.9,28.05,NE,49,5.4,17.4,50,0.00,,---,0.00,VWS V14.01,2013-05-27 21:52:00,
2013-05-27 16:57:00,84.4,64.3,28.05,SSE,156,7.6,17.4,51,0.00,,---,0.00,VWS V14.01,2013-05-27 21:57:00,
2013-05-27 17:03:00,84.2,64.1,28.05,SSW,197,6.3,14.5,51,0.00,,---,0.00,VWS V14.01,2013-05-27 22:03:00,
2013-05-27 17:08:00,84.0,65.1,28.05,SE,144,8.1,14.5,53,0.00,,---,0.00,VWS V14.01,2013-05-27 22:08:00,
2013-05-27 17:13:00,83.8,64.9,28.05,SSE,147,8.1,14.5,53,0.00,,---,0.00,VWS V14.01,2013-05-27 22:13:00,
2013-05-27 17:18:00,83.8,65.4,28.05,SSE,152,8.1,14.5,54,0.00,,---,0.00,VWS V14.01,2013-05-27 22:18:00,
2013-05-27 17:23:00,83.8,65.4,28.05,SSE,155,4.0,14.5,54,0.00,,---,0.00,VWS V14.01,2013-05-27 22:23:00,
2013-05-27 17:28:00,83.8,65.4,28.05,SE,143,6.3,14.5,54,0.00,,---,0.00,VWS V14.01,2013-05-27 22:28:00,
2013-05-27 17:33:00,83.5,65.6,28.05,ESE,106,6.3,14.5,55,0.00,,---,0.00,VWS V14.01,2013-05-27 22:33:00,
2013-05-27 17:39:00,83.5,64.6,28.02,ESE,103,7.6,15.0,53,0.00,,---,0.00,VWS V14.01,2013-05-27 22:39:00,
2013-05-27 17:44:00,83.3,64.9,28.02,ESE,102,4.0,15.0,54,0.00,,---,0.00,VWS V14.01,2013-05-27 22:44:00,
2013-05-27 17:49:00,83.3,64.4,28.02,SSE,162,11.9,15.0,53,0.00,,---,0.00,VWS V14.01,2013-05-27 22:49:00,
2013-05-27 17:54:00,83.3,64.4,28.02,SSE,155,8.1,15.0,53,0.00,,---,0.00,VWS V14.01,2013-05-27 22:54:00,
2013-05-27 17:59:00,83.1,64.2,28.02,ESE,102,5.8,15.0,53,0.00,,---,0.00,VWS V14.01,2013-05-27 22:59:00,
2013-05-27 18:04:00,82.8,63.9,28.02,South,177,8.3,10.5,53,0.00,,---,0.00,VWS V14.01,2013-05-27 23:04:00,
2013-05-27 18:09:00,82.2,63.9,28.02,SE,137,4.0,10.5,54,0.00,,---,0.00,VWS V14.01,2013-05-27 23:09:00,
2013-05-27 18:14:00,82.0,64.8,28.02,ESE,109,7.6,10.5,56,0.00,,---,0.00,VWS V14.01,2013-05-27 23:14:00,
2013-05-27 18:20:00,82.0,64.3,28.02,SE,142,8.3,14.1,55,0.00,,---,0.00,VWS V14.01,2013-05-27 23:20:00,
2013-05-27 18:25:00,82.0,64.8,28.02,SSE,165,6.3,14.1,56,0.00,,---,0.00,VWS V14.01,2013-05-27 23:25:00,
2013-05-27 18:30:00,82.0,64.8,28.02,ESE,110,4.9,14.1,56,0.00,,---,0.00,VWS V14.01,2013-05-27 23:30:00,
2013-05-27 18:35:00,81.9,64.6,28.02,SSE,164,5.4,14.1,56,0.00,,---,0.00,VWS V14.01,2013-05-27 23:35:00,
2013-05-27 18:40:00,81.5,64.3,27.99,East,100,16.8,16.8,56,0.00,,---,0.00,VWS V14.01,2013-05-27 23:40:00,
2013-05-27 18:45:00,81.0,64.8,27.99,East,91,8.1,16.8,58,0.00,,---,0.00,VWS V14.01,2013-05-27 23:45:00,
2013-05-27 18:50:00,80.4,64.8,27.99,East,98,9.2,16.8,59,0.00,,---,0.00,VWS V14.01,2013-05-27 23:50:00,
2013-05-27 18:55:00,80.1,64.9,27.96,ESE,110,6.3,16.8,60,0.00,,---,0.00,VWS V14.01,2013-05-27 23:55:00,
2013-05-27 19:00:00,79.9,65.2,27.96,SE,141,3.6,7.6,61,0.00,,---,0.00,VWS V14.01,2013-05-28 00:00:00,
2013-05-27 19:05:00,79.7,65.1,27.96,ESE,123,6.3,9.6,61,0.00,,---,0.00,VWS V14.01,2013-05-28 00:05:00,
2013-05-27 19:11:00,79.5,65.4,27.96,SSW,207,5.8,9.6,62,0.00,,---,0.00,VWS V14.01,2013-05-28 00:11:00,
2013-05-27 19:16:00,79.3,65.2,27.96,ESE,117,6.3,9.6,62,0.00,,---,0.00,VWS V14.01,2013-05-28 00:16:00,
2013-05-27 19:21:00,79.3,65.2,27.96,East,98,5.4,9.6,62,0.00,,---,0.00,VWS V14.01,2013-05-28 00:21:00,
2013-05-27 19:26:00,79.2,65.0,27.96,SSW,205,13.2,13.2,62,0.00,,---,0.00,VWS V14.01,2013-05-28 00:26:00,
2013-05-27 19:31:00,79.0,64.9,27.96,ESE,111,6.3,15.4,62,0.00,,---,0.00,VWS V14.01,2013-05-28 00:31:00,
2013-05-27 19:36:00,78.8,64.7,27.96,ESE,122,6.7,15.4,62,0.00,,---,0.00,VWS V14.01,2013-05-28 00:36:00,
2013-05-27 19:41:00,78.6,65.0,27.96,ESE,122,8.1,15.4,63,0.00,,---,0.00,VWS V14.01,2013-05-28 00:41:00,
2013-05-27 19:46:00,78.4,65.3,27.96,SSE,159,5.8,15.4,64,0.00,,---,0.00,VWS V14.01,2013-05-28 00:46:00,
2013-05-27 19:51:00,78.3,65.1,27.96,ESE,123,8.7,15.4,64,0.00,,---,0.00,VWS V14.01,2013-05-28 00:51:00,
2013-05-27 19:56:00,78.1,64.9,27.96,ESE,116,4.9,15.4,64,0.00,,---,0.00,VWS V14.01,2013-05-28 00:56:00,
2013-05-27 20:02:00,77.9,65.2,27.96,SSE,166,5.8,12.8,65,0.00,,---,0.00,VWS V14.01,2013-05-28 01:02:00,
2013-05-27 20:07:00,77.7,65.0,27.96,SSE,149,8.3,12.8,65,0.00,,---,0.00,VWS V14.01,2013-05-28 01:07:00,
2013-05-27 20:12:00,77.4,64.7,27.96,SE,135,8.1,12.8,65,0.00,,---,0.00,VWS V14.01,2013-05-28 01:12:00,
2013-05-27 20:17:00,77.4,64.7,27.96,SE,141,7.6,12.8,65,0.00,,---,0.00,VWS V14.01,2013-05-28 01:17:00,
2013-05-27 20:22:00,77.2,64.9,27.96,SE,128,5.8,12.8,66,0.00,,---,0.00,VWS V14.01,2013-05-28 01:22:00,
2013-05-27 20:27:00,77.2,64.5,27.96,SE,146,8.3,12.8,65,0.00,,---,0.00,VWS V14.01,2013-05-28 01:27:00,
2013-05-27 20:32:00,77.0,64.3,27.96,SSW,202,8.1,12.8,65,0.00,,---,0.00,VWS V14.01,2013-05-28 01:32:00,
2013-05-27 20:37:00,77.0,64.8,27.99,ESE,115,8.7,14.1,66,0.00,,---,0.00,VWS V14.01,2013-05-28 01:37:00,
2013-05-27 20:43:00,76.8,64.6,27.99,ESE,118,5.8,14.1,66,0.00,,---,0.00,VWS V14.01,2013-05-28 01:43:00,
2013-05-27 20:48:00,76.6,64.4,27.99,SE,143,4.9,14.1,66,0.00,,---,0.00,VWS V14.01,2013-05-28 01:48:00,
2013-05-27 20:53:00,76.6,64.4,27.99,SSE,148,5.8,14.1,66,0.00,,---,0.00,VWS V14.01,2013-05-28 01:53:00,
2013-05-27 20:58:00,76.5,64.3,27.99,SE,141,6.3,14.1,66,0.00,,---,0.00,VWS V14.01,2013-05-28 01:58:00,
2013-05-27 21:03:00,76.3,64.1,27.99,SSE,154,3.1,9.6,66,0.00,,---,0.00,VWS V14.01,2013-05-28 02:03:00,
2013-05-27 21:08:00,76.3,64.1,27.99,South,174,3.6,9.6,66,0.00,,---,0.00,VWS V14.01,2013-05-28 02:08:00,
2013-05-27 21:13:00,76.3,64.5,27.99,SSE,152,6.3,10.1,67,0.00,,---,0.00,VWS V14.01,2013-05-28 02:13:00,
2013-05-27 21:18:00,76.3,64.1,27.99,SSE,167,4.9,10.1,66,0.00,,---,0.00,VWS V14.01,2013-05-28 02:18:00,
2013-05-27 21:23:00,76.1,63.9,28.02,SE,144,4.9,10.1,66,0.00,,---,0.00,VWS V14.01,2013-05-28 02:23:00,
2013-05-27 21:29:00,76.1,64.4,28.02,South,176,3.6,10.5,67,0.00,,---,0.00,VWS V14.01,2013-05-28 02:29:00,
2013-05-27 21:34:00,76.1,64.4,28.02,SSE,164,8.1,10.5,67,0.00,,---,0.00,VWS V14.01,2013-05-28 02:34:00,
2013-05-27 21:39:00,76.1,64.4,28.05,SE,140,5.8,10.5,67,0.00,,---,0.00,VWS V14.01,2013-05-28 02:39:00,
2013-05-27 21:44:00,76.1,64.4,28.05,South,177,3.6,10.5,67,0.00,,---,0.00,VWS V14.01,2013-05-28 02:44:00,
2013-05-27 21:49:00,76.1,64.4,28.05,South,176,3.6,10.5,67,0.00,,---,0.00,VWS V14.01,2013-05-28 02:49:00,
2013-05-27 21:54:00,76.1,64.4,28.08,SE,138,4.0,10.5,67,0.00,,---,0.00,VWS V14.01,2013-05-28 02:54:00,
2013-05-27 21:59:00,76.1,64.4,28.08,SSE,153,3.6,12.3,67,0.00,,---,0.00,VWS V14.01,2013-05-28 02:59:00,
2013-05-27 22:04:00,76.1,64.4,28.08,SE,136,5.8,8.3,67,0.00,,---,0.00,VWS V14.01,2013-05-28 03:04:00,
2013-05-27 22:09:00,76.1,64.4,28.08,South,173,8.3,8.7,67,0.00,,---,0.00,VWS V14.01,2013-05-28 03:09:00,
2013-05-27 22:15:00,75.9,64.2,28.08,SE,129,3.6,8.7,67,0.00,,---,0.00,VWS V14.01,2013-05-28 03:15:00,
2013-05-27 22:20:00,75.9,64.2,28.08,ESE,122,5.8,10.1,67,0.00,,---,0.00,VWS V14.01,2013-05-28 03:20:00,
2013-05-27 22:25:00,75.7,64.0,28.05,SE,126,6.3,12.3,67,0.00,,---,0.00,VWS V14.01,2013-05-28 03:25:00,
2013-05-27 22:30:00,75.6,64.3,28.05,SE,131,5.4,12.3,68,0.00,,---,0.00,VWS V14.01,2013-05-28 03:30:00,
2013-05-27 22:35:00,75.6,64.3,28.05,ESE,114,4.0,12.3,68,0.00,,---,0.00,VWS V14.01,2013-05-28 03:35:00,
2013-05-27 22:40:00,75.4,64.1,28.05,South,183,11.0,12.3,68,0.00,,---,0.00,VWS V14.01,2013-05-28 03:40:00,
2013-05-27 22:45:00,75.2,63.9,28.05,SE,136,3.6,12.3,68,0.00,,---,0.00,VWS V14.01,2013-05-28 03:45:00,
2013-05-27 22:50:00,75.2,64.3,28.05,South,171,6.7,12.3,69,0.00,,---,0.00,VWS V14.01,2013-05-28 03:50:00,
2013-05-27 22:55:00,75.0,64.2,28.05,SE,128,3.6,12.3,69,0.00,,---,0.00,VWS V14.01,2013-05-28 03:55:00,
2013-05-27 23:01:00,74.8,64.4,28.05,SE,142,4.0,5.8,70,0.00,,---,0.00,VWS V14.01,2013-05-28 04:01:00,
2013-05-27 23:02:00,74.8,64.4,28.05,SSE,164,4.0,8.3,70,0.00,,---,0.00,VWS V14.01,2013-05-28 04:02:00,
2013-05-27 23:03:00,74.8,64.4,28.05,SE,136,8.7,8.7,70,0.00,,---,0.00,VWS V14.01,2013-05-28 04:03:00,
2013-05-27 23:08:00,74.7,64.2,28.05,SSE,154,6.3,8.7,70,0.00,,---,0.00,VWS V14.01,2013-05-28 04:08:00,
2013-05-27 23:13:00,74.5,64.1,28.05,ESE,112,4.0,8.7,70,0.00,,---,0.00,VWS V14.01,2013-05-28 04:13:00,
2013-05-27 23:18:00,74.5,64.5,28.05,SSE,165,5.4,8.7,71,0.00,,---,0.00,VWS V14.01,2013-05-28 04:18:00,
2013-05-27 23:23:00,74.3,64.3,28.05,ESE,122,4.9,9.6,71,0.00,,---,0.00,VWS V14.01,2013-05-28 04:23:00,
2013-05-27 23:28:00,74.1,64.1,28.05,SW,235,3.1,9.6,71,0.00,,---,0.00,VWS V14.01,2013-05-28 04:28:00,
2013-05-27 23:33:00,74.1,64.5,28.05,SE,134,2.7,9.6,72,0.00,,---,0.00,VWS V14.01,2013-05-28 04:33:00,
2013-05-27 23:39:00,73.9,64.3,28.05,SSE,152,3.1,9.6,72,0.00,,---,0.00,VWS V14.01,2013-05-28 04:39:00,
2013-05-27 23:44:00,73.9,64.3,28.05,SE,133,6.3,9.6,72,0.00,,---,0.00,VWS V14.01,2013-05-28 04:44:00,
2013-05-27 23:49:00,73.9,64.8,28.05,SE,145,2.7,9.6,73,0.00,,---,0.00,VWS V14.01,2013-05-28 04:49:00,
2013-05-27 23:54:00,73.8,64.6,28.05,South,169,2.7,9.6,73,0.00,,---,0.00,VWS V14.01,2013-05-28 04:54:00,
2013-05-27 23:59:00,73.8,64.6,28.05,SSE,168,5.8,9.6,73,0.00,,---,0.00,VWS V14.01,2013-05-28 04:59:00,